Location: New Canada
(47.1017°N, 68.5042°W)
Time: 07:16:00
(UTC+00:00)

EO-79 - Pass Details

Date: 10 April 2023
Orbit: 578 x 593 km, 98.0° (Epoch: 03 June)

Event Time Altitude Azimuth Distance (km) Brightness Sun altitude
Rises 06:57:22 0° 12° (NNE) 2,820 ? -26.7°
Reaches altitude 10° 06:59:32 10° 12° (NNE) 1,912 ? -26.4°
Enters shadow 07:02:47 54° 2° (N) 713 ? -26.1°
